Location: Windsor
(43.2292°N, 89.3015°W)
Time: 06:46:53
(UTC+00:00)

ZACube-1 - Visible Passes

Search period start: 28 June 2022 00:00
Search period end: 08 July 2022 00:00
Orbit: 581 x 662 km, 97.6° (Epoch: 27 June)

Date Brightness Start Highest point End Pass type
(mag) Time Alt. Az. Time Alt. Az. Time Alt. Az.
28 Jun ? 09:25:33 10° NNE 09:29:45 41° E 09:34:01 10° S visible
01 Jul ? 08:44:04 10° NE 08:46:47 16° E 08:49:30 10° SE visible
02 Jul ? 09:01:07 10° NE 09:04:45 24° E 09:08:23 10° SSE visible
03 Jul ? 09:18:31 10° NNE 09:22:40 35° E 09:26:50 10° SSE visible
04 Jul ? 09:36:06 10° NNE 09:40:32 55° E 09:45:00 10° S visible
06 Jul ? 08:37:19 10° ENE 08:39:36 14° E 08:41:51 10° ESE visible
07 Jul ? 08:54:10 10° NE 08:57:34 21° E 09:00:59 10° SE visible
